Temperature
-2 -2 -2 -1 -1 -1 -1 -0 -0 0 1 1 1 1 2 2 2 2 3 3 4 4 4 4 4 5 5 5 5 5 6 6 6 6 6 6 6 6
-3 -2 -2 -2 -2 -2 -1 -1 -1 -1 -0 0 0 1 1 1 1 2 2 2 3 3 4 4 4 4 4 4 5 5 5 5 6 6 6 6 6 5
-3 -3 -3 -3 -2 -2 -2 -2 -1 -1 -1 -1 -0 0 0 0 1 1 1 2 2 2 3 3 3 3 4 4 4 4 4 5 5 5 5 5 5 5
-4 -4 -3 -3 -3 -3 -3 -2 -2 -2 -1 -1 -1 -1 -0 -0 0 0 1 1 1 2 2 2 3 3 3 3 3 4 4 4 4 5 5 5 5 5
-4 -4 -4 -4 -4 -3 -3 -3 -3 -2 -2 -2 -1 -1 -1 -1 -1 -0 -0 0 0 1 1 1 2 2 3 3 3 3 3 4 4 4 4 4 4 4
-5 -5 -4 -4 -4 -4 -4 -3 -3 -3 -3 -2 -2 -2 -1 -1 -1 -1 -1 -1 -0 -0 0 1 1 1 2 2 2 2 3 3 3 4 4 4 4 4
-5 -5 -5 -5 -4 -4 -4 -4 -4 -3 -3 -3 -3 -2 -2 -2 -1 -1 -1 -1 -1 -1 -1 -0 0 0 1 1 1 2 2 2 3 3 3 3 3 3
-6 -5 -5 -5 -5 -4 -4 -4 -4 -4 -4 -4 -3 -3 -2 -2 -2 -2 -2 -2 -2 -1 -1 -1 -1 -1 -0 0 1 1 1 1 2 2 2 2 3 3
-6 -6 -6 -5 -5 -5 -5 -5 -4 -4 -4 -4 -4 -3 -3 -3 -3 -3 -2 -2 -2 -2 -2 -2 -2 -1 -1 -1 0 0 1 1 1 1 2 2 2 2
-7 -6 -6 -6 -6 -6 -6 -5 -5 -4 -4 -4 -4 -4 -3 -3 -3 -3 -3 -3 -3 -3 -3 -3 -2 -2 -2 -1 -1 -0 0 0 0 1 1 1 1 1
-7 -7 -7 -6 -6 -6 -6 -6 -5 -5 -5 -4 -4 -4 -4 -4 -4 -4 -4 -3 -3 -3 -3 -3 -3 -3 -2 -2 -1 -1 -1 -0 -0 -0 0 0 0 0
-7 -7 -7 -7 -6 -6 -6 -6 -6 -5 -5 -5 -5 -5 -4 -4 -4 -4 -4 -4 -4 -4 -3 -3 -3 -3 -3 -3 -2 -2 -1 -1 -1 -1 -1 -1 -0 -0
-8 -7 -7 -7 -7 -6 -6 -6 -6 -5 -5 -5 -5 -5 -5 -5 -5 -4 -4 -4 -4 -4 -4 -4 -4 -4 -4 -3 -3 -3 -2 -2 -2 -2 -1 -1 -1 -1
-8 -8 -8 -7 -7 -7 -6 -6 -6 -6 -6 -6 -5 -5 -5 -5 -5 -5 -5 -5 -5 -4 -4 -4 -4 -4 -4 -4 -4 -4 -3 -3 -3 -2 -2 -2 -2 -2
-9 -8 -8 -7 -7 -7 -7 -7 -7 -7 -6 -6 -6 -6 -6 -6 -6 -5 -5 -5 -5 -5 -5 -5 -5 -5 -5 -4 -4 -4 -4 -4 -3 -3 -3 -2 -2 -2
-9 -9 -8 -8 -8 -8 -8 -8 -7 -7 -7 -7 -7 -7 -6 -6 -6 -6 -6 -6 -6 -6 -6 -6 -5 -5 -5 -5 -5 -5 -5 -5 -4 -4 -3 -3 -3 -3
-9 -9 -9 -9 -9 -9 -8 -8 -8 -8 -8 -8 -7 -7 -7 -7 -7 -7 -7 -7 -7 -7 -6 -6 -6 -6 -5 -5 -5 -5 -5 -5 -5 -4 -4 -4 -4 -3
-10 -10 -10 -10 -9 -9 -9 -9 -9 -9 -8 -8 -8 -8 -8 -8 -7 -7 -7 -7 -7 -7 -7 -7 -6 -6 -6 -6 -6 -6 -6 -6 -5 -5 -5 -5 -4 -4
-10 -11 -11 -10 -10 -10 -10 -10 -9 -9 -9 -9 -9 -8 -8 -8 -8 -8 -8 -8 -8 -8 -8 -7 -7 -7 -7 -7 -7 -6 -6 -6 -6 -6 -5 -5 -5 -4
-11 -11 -11 -11 -11 -11 -10 -10 -10 -10 -10 -10 -9 -9 -9 -9 -9 -9 -8 -8 -8 -8 -8 -8 -8 -7 -7 -7 -7 -7 -6 -6 -6 -6 -6 -6 -5 -5
-12 -12 -11 -11 -11 -11 -11 -11 -11 -11 -10 -10 -10 -10 -9 -9 -9 -9 -9 -9 -9 -9 -9 -8 -8 -8 -7 -7 -8 -7 -7 -7 -6 -6 -6 -6 -6 -6
-12 -12 -12 -12 -12 -11 -11 -11 -11 -11 -11 -11 -11 -10 -10 -10 -9 -9 -9 -9 -9 -9 -9 -9 -8 -8 -8 -8 -8 -8 -7 -7 -7 -7 -7 -6 -6 -6
-12 -12 -12 -12 -12 -12 -12 -11 -11 -11 -11 -11 -11 -11 -10 -10 -10 -10 -10 -10 -9 -9 -9 -9 -9 -9 -9 -9 -8 -8 -8 -8 -7 -7 -7 -7 -7 -6
Wind_Speed
8 8 7 6 6 7 7 8 8 8 9 7 5 6 6 7 7 8 8 9 9 10 10 10 10 9 10 11 10 10 9 10 10 11 12 13 12 13
7 8 8 6 6 6 6 7 8 9 9 7 7 7 7 7 8 9 9 10 10 10 10 9 9 10 11 11 11 11 11 10 10 12 13 12 12 12
8 9 9 9 7 6 7 7 8 8 10 9 7 7 9 9 8 8 9 9 9 9 10 10 10 10 11 12 12 12 12 11 11 12 14 14 13 13
10 10 10 8 9 8 7 8 8 9 10 11 9 8 9 9 8 8 7 8 8 8 10 11 11 11 10 11 12 12 13 12 13 12 13 14 14 14
11 11 11 10 10 9 9 9 8 8 9 9 9 8 7 7 8 7 8 7 7 8 9 11 11 11 11 11 11 12 13 13 13 13 13 14 15 15
11 11 11 11 11 11 9 10 9 9 9 8 8 8 7 7 7 6 6 6 6 6 7 8 9 10 11 11 12 12 12 12 13 14 14 14 15 15
12 11 11 12 13 12 10 10 9 8 8 8 8 8 8 7 7 6 7 6 6 6 6 6 6 7 8 10 11 12 12 12 12 13 14 14 15 16
12 12 12 12 13 15 16 15 13 11 10 9 9 9 9 9 7 7 6 7 7 5 6 6 6 7 7 8 9 10 11 12 12 11 12 13 12 14
11 11 10 10 13 12 13 15 15 16 15 12 12 12 11 9 9 9 9 8 8 6 6 7 6 7 7 8 10 10 11 12 12 12 12 12 12 12
11 12 12 12 11 12 11 11 12 13 14 13 12 12 11 10 10 9 9 8 8 7 7 8 7 7 7 7 9 10 11 11 12 12 12 12 13 12
11 11 12 12 14 15 12 12 12 11 12 14 15 14 14 14 11 7 8 7 8 8 6 6 7 6 6 7 7 10 11 11 12 12 12 12 12 12
10 11 13 13 14 15 11 11 12 11 10 9 11 12 12 12 13 10 9 8 7 7 6 6 6 5 5 5 6 6 7 9 11 12 12 12 12 9
9 9 9 13 14 14 12 10 11 10 9 9 8 8 8 8 8 8 8 8 8 7 5 5 5 6 6 5 5 5 6 6 7 8 10 12 13 11
10 9 9 13 13 13 11 10 11 10 7 7 7 7 7 7 6 6 6 7 7 8 8 7 6 6 6 7 6 5 5 6 6 6 6 9 11 13
9 12 13 13 12 9 9 9 7 6 6 6 6 6 6 6 5 5 5 5 5 6 7 8 8 7 7 8 6 6 5 5 6 6 6 6 7 7
9 10 11 10 8 7 6 5 4 5 5 6 6 5 4 5 5 5 4 4 5 5 5 6 8 8 8 8 7 7 6 5 4 5 5 5 6 7
8 6 6 5 4 4 4 4 4 4 5 5 5 5 5 5 5 4 4 5 5 6 5 4 4 5 7 7 7 7 6 6 6 5 5 5 6 6
8 6 5 5 4 4 4 4 4 5 5 5 5 5 5 5 5 4 4 5 6 6 5 4 3 3 4 5 6 7 6 6 5 5 5 6 6 5
6 5 5 5 5 5 5 5 5 5 5 5 5 5 5 5 5 5 5 5 6 6 5 5 5 5 6 6 4 6 6 5 5 5 5 5 6 6
5 5 6 6 5 5 5 5 5 5 5 5 5 5 5 5 5 6 6 6 6 6 6 5 6 6 7 6 5 4 7 7 6 6 5 4 4 6
6 6 6 6 6 6 5 5 5 5 5 5 5 5 5 5 6 6 6 7 7 6 6 6 5 5 4 3 4 4 4 7 8 6 5 4 4 4
6 6 6 6 6 6 6 5 5 5 5 5 5 5 5 5 5 6 6 6 6 6 6 5 4 4 4 5 5 5 4 3 4 5 7 7 5 4
6 6 6 6 6 6 6 6 6 6 5 5 5 5 5 5 5 5 5 5 5 5 5 5 4 3 4 5 4 4 4 3 3 2 3 4 6 7
Wind_Direction
279 276 272 272 272 271 264 262 262 267 266 266 265 262 269 269 271 268 269 268 267 264 262 258 254 249 246 242 239 238 241 236 231 224 218 216 221 225
280 276 273 272 269 269 269 266 261 261 266 265 268 268 270 273 270 269 267 266 259 255 255 254 251 246 242 240 239 238 236 237 232 225 220 217 217 221
283 279 277 276 272 269 267 266 262 256 261 268 268 265 262 265 268 266 265 262 254 246 248 252 250 249 242 237 235 234 234 237 233 230 223 220 220 221
286 282 277 275 270 269 266 265 265 262 258 263 265 263 261 259 261 261 267 263 255 247 245 247 247 247 244 236 233 230 230 234 231 228 224 220 220 223
282 281 278 275 272 269 266 265 266 267 264 258 260 261 262 255 258 261 262 261 258 251 244 241 242 244 244 239 233 232 230 232 230 225 226 224 221 222
279 277 275 272 269 267 265 262 261 263 262 257 255 256 256 254 250 252 259 260 260 259 252 246 241 239 239 237 233 231 230 231 233 226 225 226 223 221
279 276 273 273 272 268 263 260 257 255 258 256 253 255 252 246 245 249 254 263 267 261 258 254 244 237 236 236 235 229 228 230 234 231 225 227 227 223
282 281 278 274 274 273 268 265 260 256 255 256 254 252 254 253 250 244 246 255 263 253 254 261 255 249 246 240 238 234 230 231 230 231 226 223 226 226
283 282 280 277 276 272 270 266 262 257 253 254 256 253 252 251 250 250 247 252 258 259 263 264 259 255 253 246 237 234 233 232 230 228 230 224 224 227
282 279 278 278 275 273 271 266 262 257 252 251 254 255 255 253 249 250 257 262 266 256 250 258 259 259 260 252 240 234 235 232 229 229 231 226 223 226
285 281 278 277 277 274 270 266 265 262 259 253 254 257 257 257 251 248 244 245 255 256 249 250 257 261 263 258 246 235 235 235 231 229 232 232 226 226
289 285 281 279 277 273 267 263 262 263 262 260 253 254 253 250 243 237 238 241 252 259 247 242 247 252 261 258 253 242 233 231 230 230 234 236 229 227
292 291 287 288 285 279 273 266 264 268 264 259 256 254 252 249 245 241 239 239 243 251 241 242 248 246 246 256 259 252 247 247 241 235 232 234 228 225
291 291 290 292 291 286 280 276 274 273 264 260 253 248 249 251 252 253 252 251 249 248 241 242 247 244 247 251 254 251 252 248 247 245 239 238 233 230
293 295 296 295 294 288 281 281 276 267 259 257 253 252 254 255 255 256 259 257 260 258 249 249 243 240 242 245 249 252 255 252 247 245 242 239 236 230
301 301 301 296 291 287 284 279 272 263 258 258 260 260 261 255 250 248 251 249 256 263 259 251 243 238 241 241 237 242 246 243 239 245 244 248 246 237
308 302 301 298 291 291 288 282 278 274 269 265 260 257 255 253 253 252 252 252 253 253 257 257 251 244 245 239 235 235 236 244 241 243 246 247 245 242
318 305 302 301 295 292 290 287 283 278 276 270 261 256 254 254 255 256 251 247 246 248 251 249 245 245 251 252 238 234 234 239 243 243 242 240 246 244
324 314 311 306 302 298 294 288 285 286 284 273 265 260 257 255 254 251 247 246 249 249 249 243 236 234 238 251 248 222 227 232 235 242 243 240 246 250
322 315 313 313 308 301 297 295 292 289 284 279 275 268 259 254 253 249 245 245 248 252 253 247 238 234 236 245 251 252 229 229 230 237 244 251 258 259
319 316 313 311 309 305 299 294 291 288 287 284 279 274 267 259 253 250 250 247 248 247 248 252 252 246 247 238 239 245 243 229 229 232 234 240 250 245
314 311 309 308 305 302 300 295 290 287 286 283 279 276 272 264 257 253 250 251 250 247 252 255 249 237 229 226 235 245 251 251 246 241 242 242 235 228
311 308 307 306 304 301 299 296 292 287 285 283 279 276 274 271 266 260 256 252 250 248 248 248 245 236 228 226 231 242 248 255 259 262 269 264 247 250
Height
1479 1478 1478 1477 1477 1477 1477 1477 1478 1475 1474 1474 1475 1475 1475 1475 1475 1475 1476 1476 1477 1478 1480 1481 1482 1484 1485 1487 1489 1491 1492 1494 1496 1497 1499 1501 1503 1505
1474 1473 1472 1472 1471 1471 1471 1471 1471 1471 1469 1468 1469 1470 1470 1469 1469 1470 1470 1470 1471 1472 1473 1475 1476 1478 1479 1481 1483 1484 1486 1488 1490 1492 1494 1495 1497 1500
1469 1468 1467 1466 1465 1465 1465 1465 1465 1465 1464 1463 1464 1464 1464 1464 1464 1464 1464 1464 1465 1466 1467 1468 1470 1471 1473 1474 1476 1478 1480 1482 1484 1486 1488 1490 1492 1494
1463 1462 1461 1461 1460 1460 1460 1459 1459 1459 1459 1457 1457 1458 1458 1458 1458 1458 1459 1459 1459 1460 1460 1462 1463 1464 1465 1467 1469 1471 1473 1475 1477 1479 1481 1483 1485 1487
1458 1457 1456 1455 1454 1454 1454 1453 1453 1453 1453 1452 1451 1452 1452 1453 1453 1453 1453 1453 1453 1454 1454 1455 1456 1457 1458 1460 1462 1464 1466 1468 1470 1472 1474 1476 1478 1480
1453 1452 1450 1450 1449 1448 1448 1447 1447 1447 1447 1446 1445 1446 1446 1447 1447 1447 1447 1447 1447 1448 1448 1449 1449 1450 1451 1453 1455 1456 1458 1460 1462 1464 1466 1469 1471 1473
1447 1446 1445 1444 1443 1442 1442 1441 1441 1441 1441 1440 1439 1440 1440 1441 1441 1441 1441 1441 1441 1442 1442 1442 1443 1443 1444 1446 1447 1449 1451 1452 1454 1457 1459 1461 1463 1466
1441 1439 1438 1437 1436 1435 1435 1435 1435 1435 1434 1434 1433 1433 1433 1435 1435 1435 1435 1436 1435 1437 1437 1436 1437 1436 1437 1438 1439 1441 1443 1445 1447 1449 1451 1453 1456 1458
1435 1433 1432 1430 1430 1429 1428 1427 1427 1427 1428 1428 1427 1427 1428 1428 1429 1429 1429 1429 1429 1430 1431 1429 1430 1430 1431 1431 1432 1434 1436 1438 1440 1441 1443 1446 1448 1450
1429 1427 1426 1424 1423 1422 1421 1420 1420 1420 1421 1421 1421 1421 1422 1422 1423 1424 1423 1423 1423 1424 1425 1424 1423 1424 1424 1424 1425 1427 1429 1431 1432 1434 1436 1438 1440 1443
1423 1421 1420 1418 1416 1416 1415 1414 1413 1413 1414 1414 1414 1414 1415 1416 1417 1418 1417 1417 1416 1416 1417 1417 1417 1417 1417 1417 1419 1420 1422 1423 1425 1427 1429 1431 1433 1436
1417 1415 1413 1412 1410 1409 1409 1408 1407 1406 1407 1407 1407 1407 1408 1408 1409 1410 1410 1411 1409 1409 1410 1411 1411 1412 1411 1411 1412 1413 1414 1416 1418 1420 1421 1424 1426 1428
1411 1409 1407 1405 1404 1403 1402 1401 1400 1401 1400 1400 1400 1400 1401 1401 1402 1402 1403 1404 1403 1403 1404 1405 1405 1405 1405 1405 1405 1406 1408 1409 1410 1412 1414 1416 1418 1420
1406 1403 1401 1399 1397 1396 1395 1395 1395 1395 1394 1394 1393 1393 1394 1394 1395 1395 1396 1396 1396 1396 1397 1398 1398 1399 1399 1399 1399 1400 1401 1402 1403 1405 1406 1408 1410 1412
1401 1398 1395 1393 1392 1390 1389 1389 1388 1388 1388 1388 1387 1387 1388 1388 1388 1388 1388 1389 1389 1389 1390 1391 1391 1392 1393 1392 1392 1393 1394 1395 1397 1398 1399 1401 1402 1405
1396 1393 1390 1388 1386 1385 1384 1383 1383 1383 1382 1382 1382 1382 1382 1382 1382 1382 1382 1382 1382 1382 1383 1384 1384 1385 1385 1385 1386 1386 1388 1388 1390 1392 1393 1394 1396 1398
1392 1388 1386 1383 1381 1380 1379 1378 1378 1377 1377 1377 1377 1376 1376 1376 1376 1376 1376 1376 1376 1376 1376 1377 1378 1379 1379 1380 1380 1380 1381 1383 1384 1385 1387 1388 1389 1391
1388 1385 1382 1380 1378 1376 1375 1374 1373 1372 1372 1371 1371 1370 1370 1370 1370 1370 1370 1371 1370 1370 1371 1371 1372 1372 1373 1373 1374 1374 1375 1377 1378 1380 1381 1382 1382 1384
1385 1382 1379 1377 1375 1373 1372 1370 1369 1368 1367 1366 1365 1365 1365 1365 1364 1364 1364 1364 1364 1364 1365 1366 1366 1366 1366 1366 1367 1369 1370 1371 1373 1374 1375 1376 1377 1378
1382 1380 1377 1374 1372 1370 1369 1367 1365 1364 1363 1361 1361 1360 1360 1359 1359 1358 1358 1358 1359 1359 1359 1360 1360 1360 1360 1361 1362 1363 1365 1366 1367 1368 1370 1371 1372 1373
1380 1377 1375 1372 1370 1368 1366 1364 1362 1360 1359 1357 1356 1355 1354 1354 1354 1353 1353 1353 1353 1353 1353 1353 1354 1355 1356 1357 1357 1357 1360 1361 1362 1363 1364 1365 1366 1366
1378 1375 1373 1370 1368 1365 1363 1361 1359 1357 1355 1353 1352 1351 1349 1349 1349 1348 1348 1348 1348 1348 1348 1348 1350 1350 1351 1351 1351 1352 1354 1356 1357 1358 1359 1360 1360 1360
1376 1373 1370 1367 1365 1363 1360 1358 1356 1353 1351 1350 1348 1347 1345 1344 1343 1343 1343 1343 1343 1343 1343 1343 1345 1345 1346 1346 1347 1348 1349 1350 1351 1353 1354 1355 1356 1357